ECHOSTAR 14

Last updated on Thu Jul 03 2025 00:02:45 GMT+0000 (Coordinated Universal Time)

1 36499U 10010A 25183.54307694 .00000008 00000+0 00000+0 0 9996 2 36499 0.0084 18.0225 0002257 81.2967 258.1039 1.00272030 43046
UTC large
Height (km)
Speed (km/s)
/
Latitude / Longitude
Inclination (degrees)
Orbital Period (minutes)
Azimuth
Elevation
Range (km)
Doppler Factor

Next 0 passes for location: London (51.5072 / 0.1276)

Sorry there are no passes over London.